Location: Bottenau
(48.5138°N, 8.0462°E)
Time: 16:13:02
(UTC+00:00)

SJ-6B - Pass Details

Date: 18 April 2021
Orbit: 510 x 580 km, 97.6° (Epoch: 07 May)

Event Time Altitude Azimuth Distance (km) Brightness Sun altitude
Exits shadow 19:36:17 - 182° (S) 2,605 6.0 -11.7°
Reaches altitude 10° 19:38:26 10° 189° (S) 1,727 5.1 -12.0°
Maximum altitude 19:41:58 42° 261° (W) 739 3.9 -12.5°
Drops below altitude 10° 19:45:34 10° 334° (NNW) 1,753 6.4 -13.0°
Sets 19:47:46 0° 341° (NNW) 2,652 7.2 -13.3°
